FW1358 Weather Reports


Display with metric or nautical units.
time (UTC)temp
F
wind
direction
speed
MPH
gust
MPH
rain 1hr
in
rain 24hr
in
rain mn
in
humidity
%
barometer
mb
20260509072804 55 242 0.0 0.0 0.00 0.00 0.00 80 1010.9
20260509071804 56 242 0.0 0.0 0.00 0.00 0.00 80 1011.0
20260509071303 56 242 0.0 0.0 0.00 0.00 0.00 80 1011.2
20260509070803 56 242 0.0 0.0 0.00 0.00 0.00 80 1011.2
20260509070304 56 242 0.0 0.0 0.00 0.00 0.00 80 1011.1
20260509065804 56 242 0.0 0.0 0.00 0.00 0.00 79 1011.2
20260509065306 56 242 0.0 0.0 0.00 0.00 0.00 79 1011.2
20260509064804 56 242 0.0 0.0 0.00 0.00 0.00 78 1011.4
20260509063804 56 242 0.0 0.0 0.00 0.00 0.00 78 1011.6
20260509062804 57 242 0.0 0.0 0.00 0.00 0.00 77 1011.4
20260509060304 57 242 0.0 0.0 0.00 0.00 0.00 75 1011.6
20260509055306 57 242 0.0 0.0 0.00 0.00 0.00 75 1011.5
20260509054303 58 242 0.0 0.0 0.00 0.00 0.00 75 1011.7
20260509053804 58 242 0.0 0.0 0.00 0.00 0.00 74 1011.8
20260509053304 58 242 0.0 0.0 0.00 0.00 0.00 74 1011.8
20260509052306 58 242 0.0 0.0 0.00 0.00 0.00 73 1011.9
20260509051804 58 242 0.0 0.0 0.00 0.00 0.00 73 1012.0
20260509051304 58 242 0.0 0.0 0.00 0.00 0.00 72 1011.9
20260509050304 59 242 0.0 0.0 0.00 0.00 0.00 72 1011.8
20260509045306 59 242 0.0 0.0 0.00 0.00 0.00 71 1011.8
20260509044803 59 242 0.0 0.0 0.00 0.00 0.00 71 1011.9
20260509044304 59 242 0.0 0.0 0.00 0.00 0.00 71 1012.1
20260509043303 60 242 0.0 0.0 0.00 0.00 0.00 70 1012.1
20260509042803 60 242 0.0 0.0 0.00 0.00 0.00 69 1012.2
20260509041804 60 242 0.0 0.0 0.00 0.00 0.00 68 1012.2
20260509041304 60 242 0.0 1.0 0.00 0.00 0.00 68 1012.2
20260509040804 60 242 0.0 1.0 0.00 0.00 0.00 68 1012.0
20260509035803 60 219 0.0 0.0 0.00 0.00 0.00 66 1012.1
20260509033303 61 219 0.0 0.0 0.00 0.00 0.00 63 1012.5
20260509032804 61 219 0.0 0.0 0.00 0.00 0.00 61 1012.4
20260509031803 62 219 0.0 0.0 0.00 0.00 0.00 60 1012.4
20260509031303 62 219 0.0 0.0 0.00 0.00 0.00 60 1012.3
20260509030804 62 219 0.0 0.0 0.00 0.00 0.00 60 1012.3
20260509030303 62 219 0.0 0.0 0.00 0.00 0.00 59 1012.3
20260509025306 62 219 0.0 0.0 0.00 0.00 0.00 58 1012.4
20260509024804 62 219 0.0 0.0 0.00 0.00 0.00 57 1012.3
20260509023804 63 219 0.0 0.0 0.00 0.00 0.00 57 1012.3
20260509022803 63 219 0.0 0.0 0.00 0.00 0.00 56 1012.3
20260509021803 63 219 0.0 0.0 0.00 0.00 0.00 56 1012.3
20260509021303 64 219 0.0 0.0 0.00 0.00 0.00 54 1012.3
20260509020803 64 219 0.0 0.0 0.00 0.00 0.00 53 1012.2
20260509015803 64 219 0.0 0.0 0.00 0.00 0.00 54 1012.2
20260509015306 64 219 0.0 0.0 0.00 0.00 0.00 53 1012.2
20260509014804 64 219 0.0 0.0 0.00 0.00 0.00 53 1012.1
20260509014303 65 219 0.0 0.0 0.00 0.00 0.00 52 1012.2
20260509013803 65 219 0.0 0.0 0.00 0.00 0.00 53 1012.2
20260509013304 65 219 0.0 0.0 0.00 0.00 0.00 52 1012.1
20260509012804 66 219 0.0 0.0 0.00 0.00 0.00 52 1012.0
20260509011804 66 219 0.0 0.0 0.00 0.00 0.00 53 1011.9
20260509011304 66 219 0.0 0.0 0.00 0.00 0.00 52 1011.9
20260509010804 67 219 0.0 0.0 0.00 0.00 0.00 51 1011.9
20260509010304 67 219 0.0 0.0 0.00 0.00 0.00 50 1011.9
20260509005804 68 219 0.0 0.0 0.00 0.00 0.00 50 1011.9
20260509005306 68 219 0.0 0.0 0.00 0.00 0.00 49 1011.9
20260509004304 68 219 0.0 0.0 0.00 0.00 0.00 48 1011.9
20260509002804 69 219 0.0 0.0 0.00 0.00 0.00 47 1012.0
20260509002306 70 219 0.0 0.0 0.00 0.00 0.00 44 1011.9
20260509000803 70 219 0.0 0.0 0.00 0.00 0.00 44 1011.9
20260509000304 71 219 0.0 0.0 0.00 0.00 0.00 43 1011.9
20260508232306 72 219 0.0 0.0 0.00 0.00 0.00 39 1012.4
20260508230304 73 219 0.0 0.0 0.00 0.00 0.00 39 1012.4
20260508225306 73 219 0.0 0.0 0.00 0.00 0.00 39 1012.4
20260508224803 73 219 0.0 0.0 0.00 0.00 0.00 37 1012.4
20260508224304 73 219 0.0 0.0 0.00 0.00 0.00 37 1012.3
20260508223804 74 219 0.0 0.0 0.00 0.00 0.00 34 1012.3
20260508223303 74 219 0.0 0.0 0.00 0.00 0.00 37 1012.3
20260508222804 74 219 0.0 0.0 0.00 0.00 0.00 35 1012.3
20260508221803 75 219 0.0 0.0 0.00 0.00 0.00 32 1012.2
20260508220804 76 219 0.0 0.0 0.00 0.00 0.00 31 1012.3
20260508220304 76 219 0.0 0.0 0.00 0.00 0.00 33 1012.3
20260508214803 76 219 0.0 1.0 0.00 0.00 0.00 35 1012.4
20260508213303 77 314 0.0 1.0 0.00 0.00 0.00 33 1012.6
20260508205306 77 313 0.0 0.0 0.00 0.00 0.00 33 1012.8
20260508204804 77 313 0.0 0.0 0.00 0.00 0.00 32 1012.8
20260508204304 77 313 0.0 0.0 0.00 0.00 0.00 32 1012.9
20260508203803 77 313 0.0 1.0 0.00 0.00 0.00 34 1012.9
20260508201803 77 132 0.0 0.0 0.00 0.00 0.00 31 1013.0
20260508201304 76 132 0.0 0.0 0.00 0.00 0.00 34 1013.1
20260508200804 76 132 0.0 1.0 0.00 0.00 0.00 35 1013.2
20260508195803 76 340 0.0 0.0 0.00 0.00 0.00 34 1013.4
20260508195306 76 340 0.0 0.0 0.00 0.00 0.00 35 1013.4
20260508192804 77 338 0.0 0.0 0.00 0.00 0.00 32 1013.9
20260508192306 77 338 0.0 1.0 0.00 0.00 0.00 32 1014.0
20260508191804 77 338 0.0 1.0 0.00 0.00 0.00 32 1014.1
20260508190804 77 333 0.0 1.0 0.00 0.00 0.00 35 1014.2
20260508184303 77 277 0.0 0.0 0.00 0.00 0.00 35 1014.6
20260508183803 77 277 0.0 0.0 0.00 0.00 0.00 34 1014.7
20260508182306 76 277 0.0 0.0 0.00 0.00 0.00 33 1015.0
20260508181803 75 277 0.0 0.0 0.00 0.00 0.00 34 1015.0
20260508181304 75 277 0.0 0.0 0.00 0.00 0.00 31 1015.1
20260508175803 75 277 0.0 0.0 0.00 0.00 0.00 32 1015.4
20260508174303 74 277 0.0 3.0 0.00 0.00 0.00 32 1015.8
20260508173304 74 202 0.0 0.0 0.00 0.00 0.00 34 1015.9
20260508165804 72 181 0.0 0.0 0.00 0.00 0.00 35 1016.3
20260508164304 71 181 0.0 0.0 0.00 0.00 0.00 36 1016.7
20260508163804 71 181 0.0 0.0 0.00 0.00 0.00 35 1016.8
20260508163304 71 181 0.0 0.0 0.00 0.00 0.00 35 1016.8
20260508160803 70 211 0.0 0.0 0.00 0.00 0.00 34 1017.1
20260508155306 69 211 0.0 0.0 0.00 0.00 0.00 37 1017.4
20260508153802 68 211 0.0 0.0 0.00 0.00 0.00 39 1017.6
20260508153302 67 211 0.0 0.0 0.00 0.00 0.00 43 1017.5
20260508152305 66 211 0.0 0.0 0.00 0.00 0.00 49 1017.6
20260508151303 65 211 0.0 0.0 0.00 0.00 0.00 44 1017.9
20260508150302 64 211 0.0 0.0 0.00 0.00 0.00 51 1018.1
20260508145802 63 211 0.0 0.0 0.00 0.00 0.00 53 1018.2
20260508144802 62 211 0.0 0.0 0.00 0.00 0.00 56 1018.3
20260508144303 61 211 0.0 0.0 0.00 0.00 0.00 59 1018.3
20260508142306 58 211 0.0 1.0 0.00 0.00 0.00 64 1018.3
20260508141802 58 211 0.0 1.0 0.00 0.00 0.00 67 1018.4
20260508140802 56 190 0.0 0.0 0.00 0.00 0.00 70 1018.4
20260508135803 55 190 0.0 0.0 0.00 0.00 0.00 73 1018.4
20260508131802 48 201 0.0 0.0 0.00 0.00 0.00 93 1018.4
20260508130302 47 201 0.0 0.0 0.00 0.00 0.00 93 1018.4
20260508123803 45 201 0.0 0.0 0.00 0.00 0.00 92 1018.3
20260508123302 45 201 0.0 0.0 0.00 0.00 0.00 92 1018.2
20260508122802 44 201 0.0 0.0 0.00 0.00 0.00 92 1018.2
20260508121803 44 201 0.0 0.0 0.00 0.00 0.00 91 1018.1
20260508121302 44 201 0.0 0.0 0.00 0.00 0.00 91 1018.0
20260508120803 44 201 0.0 0.0 0.00 0.00 0.00 90 1018.0
20260508120302 44 201 0.0 0.0 0.00 0.00 0.00 91 1018.0
20260508115802 44 201 0.0 0.0 0.00 0.00 0.00 91 1018.1
20260508114302 43 201 0.0 0.0 0.00 0.00 0.00 91 1017.7
20260508112803 43 201 0.0 0.0 0.00 0.00 0.00 90 1017.6
20260508112306 43 201 0.0 0.0 0.00 0.00 0.00 90 1017.6
20260508111802 43 201 0.0 0.0 0.00 0.00 0.00 90 1017.5
20260508111302 43 201 0.0 0.0 0.00 0.00 0.00 90 1017.4
20260508103802 44 201 0.0 0.0 0.00 0.00 0.00 90 1017.0
20260508103302 44 201 0.0 0.0 0.00 0.00 0.00 90 1017.0
20260508101302 44 201 0.0 0.0 0.00 0.00 0.00 89 1017.0
20260508093802 44 201 0.0 0.0 0.00 0.00 0.00 89 1016.8
20260508092312 45 201 0.0 0.0 0.00 0.00 0.00 88 1016.9
20260508091302 45 201 0.0 0.0 0.00 0.01 0.00 87 1016.8
20260508090303 45 201 0.0 0.0 0.00 0.01 0.00 86 1016.8
20260508085803 45 201 0.0 0.0 0.00 0.01 0.00 87 1016.7
20260508085306 45 201 0.0 0.0 0.00 0.01 0.00 87 1016.7
20260508084303 46 201 0.0 0.0 0.00 0.01 0.00 88 1016.6
20260508082306 46 201 0.0 0.0 0.00 0.01 0.00 88 1016.5
20260508081802 46 201 0.0 0.0 0.00 0.01 0.00 87 1016.6
20260508081303 46 201 0.0 0.0 0.00 0.01 0.00 86 1016.6
20260508075803 46 201 0.0 0.0 0.00 0.01 0.00 86 1016.8
20260508075308 47 201 0.0 0.0 0.00 0.01 0.00 87 1016.7
20260508073303 47 201 0.0 0.0 0.00 0.01 0.00 87 1016.6